Stations météo

réclame
Mon MeteoGroup
Aerodrome Toussus-Le-Noble, France (7146): Température de l'air & dewpoint: 22.02.2020 20:00:00 - 28.02.2020 20:00:00 (CET)Aerodrome Toussus-Le-Noble, France (7146): Température de l'air 5cm: 22.02.2020 20:00:00 - 28.02.2020 20:00:00 (CET)Aerodrome Toussus-Le-Noble, France (7146): Vitesse du vent & gusts: 22.02.2020 20:00:00 - 28.02.2020 20:00:00 (CET)Aerodrome Toussus-Le-Noble, France (7146): Direction du vent: 22.02.2020 20:00:00 - 28.02.2020 20:00:00 (CET)Aerodrome Toussus-Le-Noble, France (7146): reduced air pressure: 22.02.2020 20:00:00 - 28.02.2020 20:00:00 (CET)Aerodrome Toussus-Le-Noble, France (7146): visibility: 22.02.2020 20:00:00 - 28.02.2020 20:00:00 (CET)Aerodrome Toussus-Le-Noble, France (7146): Quantités de précipitations: 22.02.2020 20:00:00 - 28.02.2020 20:00:00 (CET)
Date & Time tt [°C] td [°C] tt 5cm [°C] ff [km/h] ff [knt] fx [km/h] fx [knt] dd ppp [hPa] vv [km] rr [mm]
28.02.2020 20:00:00 9,4 8,0 8,7 29 16 52 28 SSW 1008,6 13 0,0
28.02.2020 19:00:00 8,9 7,5 8,0 29 16 52 28 SSW 1009,2 7 0,0
28.02.2020 18:00:00 8,1 6,7 6,7 24 13 44 24 S 1009,8 19 0,0
28.02.2020 17:00:00 7,0 5,3 6,2 22 12 38 20 S 1011,1 35 0,0
28.02.2020 16:00:00 6,7 4,9 6,4 24 13 44 24 S 1012,1 19 0,0
28.02.2020 15:00:00 6,7 3,3 7,0 29 16 48 26 S 1013,2 36 0,0
28.02.2020 14:00:00 6,5 2,6 5,7 24 13 41 22 S 1014,1 47 0,0
28.02.2020 13:00:00 6,1 2,2 5,9 29 15 45 25 S 1015,7 34 0,0
28.02.2020 12:00:00 6,1 0,6 5,2 26 14 42 23 S 1016,7 40 0,0
28.02.2020 11:00:00 4,6 0,9 3,7 22 12 36 20 S 1018,0 47 0,0
28.02.2020 10:00:00 3,5 0,4 2,6 21 11 31 17 S 1018,8 35 0,0
28.02.2020 09:00:00 2,2 0,1 0,6 16 9 26 14 S 1019,1 28 0,0
28.02.2020 08:00:00 0,9 -0,6 0,0 8 4 12 7 SSE 1019,2 18 0,0
28.02.2020 07:00:00 0,5 -0,4 -2,0 10 5 12 7 S 1019,4 20 0,0
28.02.2020 06:00:00 -1,5 -2,3 -3,2 3 2 6 4 S 1019,7 20 0,0
28.02.2020 05:00:00 -1,2 -2,0 -3,4 3 2 9 5 SSE 1019,8 17 0,0
28.02.2020 04:00:00 -1,1 -2,4 -2,7 6 4 10 5 WSW 1019,8 20 0,0
28.02.2020 03:00:00 -0,8 -2,7 -2,6 5 3 10 6 W 1019,7 37 0,0
28.02.2020 02:00:00 0,5 -1,6 -1,6 9 5 12 6 WSW 1019,4 34 0,0
28.02.2020 01:00:00 1,5 -0,7 0,3 6 3 18 10 W 1018,9 35 0,0
28.02.2020 00:00:00 2,1 -0,2 0,9 15 8 18 10 WSW 1018,4 37 0,0
27.02.2020 23:00:00 2,5 -0,3 1,5 11 6 23 12 W 1017,5 42 0,0
27.02.2020 22:00:00 2,7 -0,4 1,7 13 7 18 10 W 1016,4 42 0,0
27.02.2020 21:00:00 3,7 -0,5 2,9 13 7 34 18 WNW 1014,8 42 0,0
27.02.2020 20:00:00 4,8 -0,4 4,2 22 12 38 21 NW 1013,6 51 0,0
27.02.2020 19:00:00 5,1 -0,5 4,5 24 13 58 31 NW 1011,6 56 0,0
27.02.2020 18:00:00 5,9 0,2 5,7 35 19 72 39 NW 1008,7 52 0,0
27.02.2020 17:00:00 6,1 0,6 6,1 45 24 77 42 NW 1006,4 48 0,0
27.02.2020 16:00:00 6,5 2,0 6,5 46 25 77 42 NW 1003,0 46 0,0
27.02.2020 15:00:00 6,5 2,6 7,0 53 29 93 50 NW 999,9 42 0,0
27.02.2020 14:00:00 7,5 3,4 8,3 63 34 94 51 NW 995,6 33 0,0
27.02.2020 13:00:00 11,0 7,1 10,1 41 22 69 37 W 991,2 31 0,0
27.02.2020 12:00:00 9,7 8,8 7,8 28 15 52 28 WSW 991,0 14 0,2
27.02.2020 11:00:00 7,6 6,8 5,8 32 18 54 29 SW 991,6 3,2 0,4
27.02.2020 10:00:00 5,8 5,1 4,3 38 21 61 33 SSW 993,2 3,2 1,0
27.02.2020 09:00:00 4,3 3,4 2,9 34 18 55 30 S 995,5 3,8 1,4
27.02.2020 08:00:00 3,3 2,1 2,8 35 19 58 31 SSE 997,2 5 3,7
27.02.2020 07:00:00 3,6 2,3 2,9 29 16 58 31 S 1001,1 7 1,6
27.02.2020 06:00:00 3,2 1,9 2,7 19 11 32 17 S 1003,9 8 0,8
27.02.2020 05:00:00 3,3 1,0 2,8 21 11 33 18 S 1005,8 17 0,0
27.02.2020 04:00:00 3,1 0,5 2,6 17 9 26 14 S 1007,8 33 0,0
27.02.2020 03:00:00 2,6 0,5 2,0 14 8 25 13 SSW 1009,5 32 0,0
27.02.2020 02:00:00 2,4 0,3 1,5 15 8 22 12 SW 1011,1 33 0,0
27.02.2020 01:00:00 2,2 -0,1 1,6 14 7 21 12 SW 1011,9 34 0,0
27.02.2020 00:00:00 2,4 -0,2 1,7 15 8 22 12 SW 1012,5 35 0,0
26.02.2020 23:00:00 2,7 -0,2 1,9 15 8 25 14 WSW 1012,8 38 0,0
26.02.2020 22:00:00 2,8 0,2 1,8 12 6 19 10 WSW 1012,9 41 0,0
26.02.2020 21:00:00 3,1 0,7 1,8 12 6 25 13 WSW 1012,8 43 0,0
26.02.2020 20:00:00 4,1 0,2 3,2 14 8 29 15 W 1012,8 46 0,0
26.02.2020 19:00:00 4,8 -0,6 3,5 13 7 42 23 WSW 1012,1 45 0,0
26.02.2020 18:00:00 6,1 -0,9 5,2 20 11 45 24 WNW 1011,1 50 0,0
26.02.2020 17:00:00 6,5 0,8 4,3 26 14 50 27 WNW 1010,7 27 0,0
26.02.2020 16:00:00 5,4 1,9 3,7 24 13 65 35 WNW 1010,4 32 0,6
26.02.2020 15:00:00 6,9 2,6 5,4 36 20 54 29 WNW 1009,6 9 0,0
26.02.2020 14:00:00 6,1 3,4 4,0 30 16 61 33 WNW 1009,3 17 0,4
26.02.2020 13:00:00 6,1 2,2 5,5 31 17 52 28 W 1008,8 19 0,0
26.02.2020 12:00:00 5,8 1,9 6,6 24 13 45 25 W 1008,8 52 0,0
26.02.2020 11:00:00 5,4 1,9 5,9 26 14 48 26 W 1008,1 20 0,0
26.02.2020 10:00:00 3,5 1,2 2,3 26 14 43 23 W 1007,2 29 0,0
26.02.2020 09:00:00 1,9 0,6 0,7 24 13 44 24 W 1006,3 58 0,2
26.02.2020 08:00:00 1,7 0,2 0,8 24 13 50 27 W 1004,7 55 0,4
26.02.2020 07:00:00 2,2 -0,4 1,5 24 13 39 21 W 1003,8 59 0,0
26.02.2020 06:00:00 2,3 -0,3 1,5 24 13 51 27 W 1003,3 35 0,0
26.02.2020 05:00:00 1,8 -0,8 1,1 22 12 49 26 W 1003,3 60 0,0
26.02.2020 04:00:00 2,4 0,1 1,9 28 15 53 29 W 1003,0 60 0,2
26.02.2020 03:00:00 3,5 0,2 3,3 27 14 54 29 W 1003,3 58 0,0
26.02.2020 02:00:00 3,4 0,3 2,7 30 16 47 26 WSW 1003,3 49 0,0
26.02.2020 01:00:00 3,7 -0,1 3,1 24 13 50 27 W 1003,3 48 0,0
26.02.2020 00:00:00 3,7 0,4 3,0 24 13 48 26 W 1003,1 41 0,0
25.02.2020 23:00:00 3,6 0,6 2,9 27 14 55 30 W 1003,2 56 0,0
25.02.2020 22:00:00 3,5 1,2 2,8 22 12 43 23 W 1002,9 52 0,0
25.02.2020 21:00:00 3,9 1,3 3,0 21 12 59 32 W 1002,8 50 0,0
25.02.2020 20:00:00 4,5 2,0 3,7 35 19 64 34 W 1003,6 7 1,0
25.02.2020 19:00:00 6,0 2,5 5,3 16 9 32 17 SW 1003,1 57 0,0
25.02.2020 18:00:00 6,3 2,9 5,7 23 12 39 21 W 1003,8 48 0,0
25.02.2020 17:00:00 6,4 3,0 5,4 22 12 61 33 W 1004,3 49 0,2
25.02.2020 16:00:00 6,5 4,7 5,7 27 15 65 35 W 1004,9 7 2,0
25.02.2020 15:00:00 8,8 5,7 6,7 23 12 52 28 WSW 1004,8 41 0,8
25.02.2020 14:00:00 9,7 4,9 8,0 26 14 44 24 WSW 1005,8 47 0,0
25.02.2020 13:00:00 9,5 4,7 9,9 24 13 50 27 WSW 1006,9 39 0,0
25.02.2020 12:00:00 9,4 3,4 10,2 25 14 43 23 WSW 1007,5 43 0,0
25.02.2020 11:00:00 9,3 4,3 9,2 21 11 37 20 W 1008,1 28 0,0
25.02.2020 10:00:00 7,9 4,3 6,1 14 8 31 17 W 1008,5 53 0,0
25.02.2020 09:00:00 6,8 4,5 6,1 22 12 42 23 W 1008,8 59 0,0
25.02.2020 08:00:00 7,1 5,6 6,7 15 8 25 14 W 1008,6 49 0,0
25.02.2020 07:00:00 7,1 5,7 6,7 12 6 32 17 W 1008,9 14 0,2
25.02.2020 06:00:00 7,4 6,0 7,1 20 11 51 28 WNW 1008,8 59 1,6
25.02.2020 05:00:00 9,0 8,1 8,7 21 12 37 20 SW 1008,1 2,2 0,6
25.02.2020 04:00:00 8,9 8,0 8,6 23 12 37 20 SW 1008,8 11 0,8
25.02.2020 03:00:00 8,8 7,7 8,6 23 13 44 24 SW 1009,8 12 0,6
25.02.2020 02:00:00 8,8 7,7 8,5 25 14 44 24 SW 1010,5 11 0,6
25.02.2020 01:00:00 8,9 7,7 8,6 28 15 46 25 SW 1011,2 14 0,4
25.02.2020 00:00:00 9,1 7,7 8,7 28 15 44 24 SW 1012,0 31 0,0
24.02.2020 23:00:00 9,1 7,7 8,8 27 15 44 24 SW 1012,4 17 0,0
24.02.2020 22:00:00 10,1 7,2 9,9 29 16 53 29 WSW 1013,4 43 0,0
24.02.2020 21:00:00 10,6 6,9 10,4 30 16 58 32 SW 1013,5 60 0,0
24.02.2020 20:00:00 10,9 6,4 10,4 32 18 56 30 WSW 1013,8 60 0,0
24.02.2020 19:00:00 11,2 6,1 10,7 31 17 57 31 SW 1013,9 60 0,0
24.02.2020 18:00:00 11,9 6,4 11,8 38 21 61 33 WSW 1014,2 60 0,0
24.02.2020 17:00:00 12,2 7,1 12,3 34 18 50 27 WSW 1014,5 60 0,0
24.02.2020 16:00:00 12,2 7,3 12,9 26 14 59 32 WSW 1015,2 54 0,0
24.02.2020 15:00:00 12,4 7,5 12,5 34 19 56 31 WSW 1016,4 34 0,0
24.02.2020 14:00:00 11,4 8,3 12,0 30 16 59 32 SW 1017,3 43 0,0
24.02.2020 13:00:00 11,4 8,4 12,0 42 23 74 40 SW 1018,4 39 0,0
24.02.2020 12:00:00 11,1 8,7 11,4 34 18 53 29 SW 1019,5 50 0,0
24.02.2020 11:00:00 10,7 8,6 11,0 28 15 49 26 SW 1020,2 38 0,0
24.02.2020 10:00:00 10,5 8,6 10,0 32 17 54 29 SW 1021,3 19 0,0
24.02.2020 09:00:00 10,1 8,7 9,7 28 15 50 27 SW 1021,8 13 0,0
24.02.2020 08:00:00 10,0 8,8 9,7 28 15 46 25 SW 1022,2 20 0,0
24.02.2020 07:00:00 10,3 9,2 10,0 24 13 34 18 SW 1022,8 29 0,0
24.02.2020 06:00:00 10,5 9,6 10,2 21 11 32 17 SW 1023,5 14 0,0
24.02.2020 05:00:00 10,6 9,7 10,3 18 10 31 17 WSW 1024,1 19 0,0
24.02.2020 04:00:00 10,7 9,8 10,4 20 11 39 21 SW 1024,5 20 0,0
24.02.2020 03:00:00 10,7 9,8 10,5 20 11 39 21 WSW 1025,4 25 0,0
24.02.2020 02:00:00 10,8 10,0 10,6 21 12 35 19 WSW 1026,1 14 0,0
24.02.2020 01:00:00 10,9 10,1 10,7 18 10 26 14 SW 1026,3 3,9 0,2
24.02.2020 00:00:00 11,0 10,2 10,9 15 8 23 13 WSW 1026,7 2,9 0,4
23.02.2020 23:00:00 11,1 10,2 10,9 17 9 31 17 WSW 1026,7 3,8 0,2
23.02.2020 22:00:00 11,2 10,3 11,0 19 10 32 17 WSW 1026,3 4,1 0,0
23.02.2020 21:00:00 11,4 10,5 11,1 23 13 38 20 WSW 1026,1 4,0 0,0
23.02.2020 20:00:00 11,5 10,4 11,1 23 12 39 21 WSW 1025,7 6 0,0
23.02.2020 19:00:00 11,9 10,0 11,7 24 13 44 24 WSW 1025,3 17 0,0
23.02.2020 18:00:00 12,1 9,7 12,1 28 15 54 29 WSW 1024,5 60 0,0
23.02.2020 17:00:00 12,5 9,7 12,5 31 17 53 28 WSW 1023,9 59 0,0
23.02.2020 16:00:00 12,4 9,6 12,5 32 17 53 29 WSW 1023,8 20 0,0
23.02.2020 15:00:00 12,2 9,2 12,2 29 16 54 29 WSW 1023,6 57 0,0
23.02.2020 14:00:00 11,7 8,7 12,0 30 16 54 29 WSW 1024,0 56 0,0
23.02.2020 13:00:00 11,9 8,7 11,8 31 17 61 33 WSW 1024,1 23 0,0
23.02.2020 12:00:00 11,3 8,3 11,6 36 19 65 35 SW 1024,1 59 0,0
23.02.2020 11:00:00 11,4 8,3 11,4 38 21 65 35 SW 1023,8 42 0,0
23.02.2020 10:00:00 10,5 8,1 9,7 34 19 63 34 SW 1023,9 54 0,0
23.02.2020 09:00:00 9,4 7,8 9,0 27 15 46 25 SW 1024,9 47 0,0
23.02.2020 08:00:00 9,1 7,7 9,1 23 12 43 23 SW 1025,2 28 0,0
23.02.2020 07:00:00 9,2 7,8 9,0 27 14 44 24 SW 1025,3 37 0,0
23.02.2020 06:00:00 9,0 7,8 8,9 23 12 40 22 SW 1025,8 12 0,0
23.02.2020 05:00:00 9,0 7,8 9,0 21 11 36 19 SW 1026,3 10 0,0
23.02.2020 04:00:00 9,3 7,7 9,2 22 12 41 22 SSW 1026,3 14 0,0
23.02.2020 03:00:00 9,6 7,5 9,5 23 12 37 20 SW 1027,5 28 0,0
23.02.2020 02:00:00 9,7 7,3 9,6 23 12 35 19 SW 1028,2 33 0,0
23.02.2020 01:00:00 9,9 7,3 9,8 18 10 36 19 SW 1028,8 37 0,0
23.02.2020 00:00:00 10,2 7,3 10,0 20 11 39 21 SW 1028,9 37 0,0
22.02.2020 23:00:00 10,5 7,4 10,4 23 12 39 21 SW 1029,1 41 0,0
22.02.2020 22:00:00 10,8 7,3 10,5 21 11 36 19 SW 1028,8 45 0,0
22.02.2020 21:00:00 11,3 7,6 10,9 25 14 42 23 WSW 1029,2 48 0,0
22.02.2020 20:00:00 11,7 7,4 11,4 20 11 38 21 WSW 1029,2 40 0,0

tt = Température de l'air
td = dewpoint
tt 5cm = Température de l'air 5cm
ff = Vitesse du vent
fx = gusts
dd = Direction du vent
ppp = reduced air pressure
vv = visibility
rr = Quantités de précipitations

stations d'obs. à proximité